FW8369 Weather Reports


Display with metric or nautical units.
time (UTC)temp
F
wind
direction
speed
MPH
gust
MPH
rain 1hr
in
rain 24hr
in
rain mn
in
humidity
%
barometer
mb
20260905130404 85 305 0.0 1.0 0.00 0.00 0.00 81 1007.8
20260905125904 85 256 0.0 1.0 0.00 0.00 0.00 82 1007.7
20260905125404 85 246 0.0 2.0 0.00 0.00 0.00 81 1007.6
20260905124404 85 334 0.0 2.0 0.00 0.00 0.00 82 1007.5
20260905123903 85 19 0.0 2.0 0.00 0.00 0.00 82 1007.5
20260905123404 86 40 0.0 3.0 0.00 0.00 0.00 82 1007.4
20260905122904 86 347 0.0 1.0 0.00 0.00 0.00 82 1007.4
20260905122404 86 30 0.0 3.0 0.00 0.00 0.00 82 1007.3
20260905121904 86 331 0.0 1.0 0.00 0.00 0.00 82 1007.2
20260905121404 86 306 0.0 1.0 0.00 0.00 0.00 82 1007.1
20260905120404 86 286 0.0 0.0 0.00 0.00 0.00 81 1007.1
20260905115904 86 286 0.0 1.0 0.00 0.00 0.00 81 1006.9
20260905114903 86 280 0.0 1.0 0.00 0.00 0.00 81 1006.8
20260905114404 86 279 0.0 1.0 0.00 0.00 0.00 81 1006.7
20260905113904 86 271 1.0 2.0 0.00 0.00 0.00 81 1006.7
20260905112904 86 256 1.0 2.0 0.00 0.00 0.00 80 1006.5
20260905112404 86 264 0.0 1.0 0.00 0.00 0.00 80 1006.5
20260905111904 86 264 0.0 1.0 0.00 0.00 0.00 79 1006.4
20260905111404 86 264 0.0 2.0 0.00 0.00 0.00 78 1006.4
20260905110904 86 273 1.0 2.0 0.00 0.00 0.00 78 1006.3
20260905110404 86 261 1.0 3.0 0.00 0.00 0.00 78 1006.2
20260905105904 86 250 1.0 2.0 0.00 0.00 0.00 79 1006.1
20260905105404 86 289 0.0 1.0 0.00 0.00 0.00 79 1006.0
20260905104404 86 291 1.0 2.0 0.00 0.00 0.00 79 1005.9
20260905103904 87 283 0.0 2.0 0.00 0.00 0.00 77 1005.8
20260905103404 87 277 0.0 1.0 0.00 0.00 0.00 76 1005.8
20260905102904 86 276 1.0 2.0 0.00 0.00 0.00 76 1005.8
20260905102404 86 279 1.0 3.0 0.00 0.00 0.00 76 1005.7
20260905101904 86 270 1.0 3.0 0.00 0.00 0.00 76 1005.7
20260905101404 86 277 1.0 3.0 0.00 0.00 0.00 78 1005.7
20260905100903 86 301 0.0 2.0 0.00 0.00 0.00 79 1005.7
20260905100403 86 301 1.0 6.0 0.00 0.00 0.00 79 1005.7
20260905095904 87 316 1.0 5.0 0.00 0.00 0.00 78 1005.6
20260905095404 87 287 1.0 5.0 0.00 0.00 0.00 78 1005.6
20260905094904 87 280 1.0 3.0 0.00 0.00 0.00 78 1005.6
20260905094404 87 297 0.0 3.0 0.00 0.00 0.00 79 1005.5
20260905093904 87 278 1.0 7.0 0.00 0.00 0.00 79 1005.5
20260905093404 87 278 1.0 3.0 0.00 0.00 0.00 77 1005.4
20260905092904 87 275 1.0 3.0 0.00 0.00 0.00 77 1005.3
20260905092404 87 271 1.0 9.0 0.00 0.00 0.00 77 1005.3
20260905090904 88 302 3.0 8.0 0.00 0.00 0.00 77 1005.1
20260905090404 88 297 4.0 8.0 0.00 0.00 0.00 75 1005.1
20260905085904 90 306 1.0 6.0 0.00 0.00 0.00 74 1005.0
20260905084904 90 299 1.0 3.0 0.00 0.00 0.00 73 1004.9
20260905084404 90 301 1.0 3.0 0.00 0.00 0.00 73 1005.0
20260905083904 90 268 2.0 3.0 0.00 0.00 0.00 74 1005.0
20260905083404 91 271 1.0 2.0 0.00 0.00 0.00 74 1005.0
20260905082904 90 279 1.0 3.0 0.00 0.00 0.00 75 1005.0
20260905082403 91 288 1.0 3.0 0.00 0.00 0.00 74 1005.0
20260905081904 90 273 1.0 2.0 0.00 0.00 0.00 75 1005.0
20260905081403 89 264 1.0 7.0 0.00 0.00 0.00 76 1004.9
20260905080904 90 298 2.0 3.0 0.00 0.00 0.00 74 1004.9
20260905080404 90 300 0.0 1.0 0.00 0.00 0.00 75 1004.8
20260905075404 90 351 2.0 5.0 0.00 0.00 0.00 74 1004.9
20260905074904 89 297 2.0 5.0 0.00 0.00 0.00 75 1004.9
20260905074404 89 349 1.0 3.0 0.00 0.00 0.00 74 1005.0
20260905073904 90 337 0.0 3.0 0.00 0.00 0.00 73 1005.0
20260905072404 89 256 1.0 3.0 0.00 0.00 0.00 75 1005.1
20260905071905 89 55 2.0 6.0 0.00 0.00 0.00 74 1005.2
20260905071404 89 30 0.0 1.0 0.00 0.00 0.00 74 1005.2
20260905070404 89 63 3.0 3.0 0.00 0.00 0.00 73 1005.2
20260905065904 90 257 1.0 3.0 0.00 0.00 0.00 73 1005.3
20260905064403 88 297 1.0 3.0 0.00 0.00 0.00 75 1005.3
20260905063904 88 340 1.0 5.0 0.00 0.00 0.00 75 1005.4
20260905062404 88 56 2.0 3.0 0.00 0.00 0.00 75 1005.5
20260905061905 88 358 1.0 3.0 0.00 0.00 0.00 76 1005.5
20260905061404 88 345 2.0 6.0 0.00 0.00 0.00 76 1005.6
20260905060404 88 342 2.0 3.0 0.00 0.00 0.00 76 1005.5
20260905055404 87 286 2.0 5.0 0.00 0.00 0.00 77 1005.5
20260905054904 87 324 2.0 3.0 0.00 0.00 0.00 76 1005.6
20260905054404 87 318 3.0 5.0 0.00 0.00 0.00 76 1005.6
20260905053904 88 327 4.0 7.0 0.00 0.00 0.00 76 1005.6
20260905053404 88 317 4.0 7.0 0.00 0.00 0.00 75 1005.6
20260905052904 88 308 2.0 3.0 0.00 0.00 0.00 76 1005.7
20260905051904 88 338 1.0 5.0 0.00 0.00 0.00 76 1005.8
20260905051404 88 335 0.0 6.0 0.00 0.00 0.00 76 1005.8
20260905050904 89 355 2.0 6.0 0.00 0.00 0.00 75 1006.0
20260905045904 89 324 1.0 3.0 0.00 0.00 0.00 77 1006.1
20260905045404 88 297 1.0 3.0 0.00 0.00 0.00 77 1006.1
20260905044904 88 264 1.0 3.0 0.00 0.00 0.00 78 1006.3
20260905043903 88 278 2.0 3.0 0.00 0.00 0.00 78 1006.4
20260905043404 88 263 1.0 2.0 0.00 0.00 0.00 78 1006.4
20260905042904 88 277 1.0 2.0 0.00 0.00 0.00 78 1006.4
20260905042404 89 292 0.0 1.0 0.00 0.00 0.00 78 1006.5
20260905041904 88 293 0.0 1.0 0.00 0.00 0.00 78 1006.5
20260905040904 88 15 2.0 3.0 0.00 0.00 0.00 77 1006.5
20260905040404 87 327 0.0 3.0 0.00 0.00 0.00 78 1006.5
20260905035404 87 340 1.0 2.0 0.00 0.00 0.00 78 1006.6
20260905034904 87 36 1.0 3.0 0.00 0.00 0.00 79 1006.7
20260905034404 86 37 1.0 5.0 0.00 0.00 0.00 80 1006.7
20260905033904 86 320 1.0 5.0 0.00 0.00 0.00 82 1006.7
20260905033404 86 317 1.0 3.0 0.00 0.00 0.00 81 1006.6
20260905031404 86 299 1.0 3.0 0.00 0.00 0.00 82 1006.9
20260905030904 87 266 1.0 3.0 0.00 0.00 0.00 82 1006.9
20260905024903 87 269 1.0 2.0 0.00 0.00 0.00 81 1006.8
20260905024404 87 265 0.0 1.0 0.00 0.00 0.00 80 1006.8
20260905023904 87 303 1.0 2.0 0.00 0.00 0.00 80 1006.9
20260905023404 87 42 1.0 3.0 0.00 0.00 0.00 79 1006.9
20260905022904 87 357 2.0 3.0 0.00 0.00 0.00 79 1006.9
20260905021404 87 50 1.0 2.0 0.00 0.00 0.00 79 1006.8
20260905020904 86 351 1.0 3.0 0.00 0.00 0.00 79 1006.7
20260905020404 85 344 1.0 3.0 0.00 0.00 0.00 81 1006.7
20260905015404 85 338 1.0 3.0 0.00 0.00 0.00 83 1006.9
20260905014904 85 347 0.0 3.0 0.00 0.00 0.00 83 1006.8
20260905014404 85 331 2.0 3.0 0.00 0.00 0.00 83 1006.8
20260905013904 85 359 0.0 2.0 0.00 0.00 0.00 84 1006.8
20260905013404 85 349 0.0 5.0 0.00 0.00 0.00 84 1006.8
20260905012904 85 329 2.0 3.0 0.00 0.00 0.00 82 1006.8
20260905012404 86 314 1.0 3.0 0.00 0.00 0.00 81 1006.9
20260905011904 85 354 1.0 3.0 0.00 0.00 0.00 80 1006.9
20260905010904 85 248 1.0 3.0 0.00 0.00 0.00 80 1006.9
20260905010404 84 315 1.0 3.0 0.00 0.00 0.00 82 1006.8
20260905005403 84 314 2.0 3.0 0.00 0.00 0.00 83 1006.7
20260905004904 84 301 1.0 5.0 0.00 0.00 0.00 84 1006.7
20260905004404 84 321 0.0 3.0 0.00 0.00 0.00 85 1006.6
20260905003904 84 318 2.0 3.0 0.00 0.00 0.00 84 1006.5
20260905003404 83 320 1.0 3.0 0.00 0.00 0.00 85 1006.5
20260905002904 83 352 1.0 2.0 0.00 0.00 0.00 85 1006.4
20260905002404 83 306 0.0 1.0 0.00 0.00 0.00 85 1006.4
20260905001904 83 329 0.0 1.0 0.00 0.00 0.00 86 1006.3
20260905001404 83 34 2.0 3.0 0.00 0.00 0.00 86 1006.3
20260905000904 83 333 1.0 2.0 0.00 0.00 0.00 86 1006.3
20260905000404 83 1 0.0 1.0 0.00 0.00 0.00 87 1006.3
20260904235904 82 15 0.0 2.0 0.00 0.00 0.00 87 1006.3
20260904235404 82 16 0.0 2.0 0.00 0.00 0.00 87 1006.2
20260904234904 82 353 0.0 3.0 0.00 0.00 0.00 87 1006.3
20260904234404 82 317 0.0 2.0 0.00 0.00 0.00 87 1006.2
20260904233404 82 322 1.0 2.0 0.00 0.00 0.00 87 1006.1
20260904232904 82 325 0.0 3.0 0.00 0.00 0.00 87 1006.1
20260904232404 82 332 0.0 3.0 0.00 0.00 0.00 87 1006.0
20260904231904 82 316 1.0 2.0 0.00 0.00 0.00 87 1005.9
20260904230904 82 62 1.0 3.0 0.00 0.00 0.00 87 1005.8
20260904230404 82 37 1.0 2.0 0.00 0.00 0.00 87 1005.9
20260904225904 82 357 1.0 2.0 0.00 0.00 0.00 87 1005.9
20260904225404 82 7 0.0 3.0 0.00 0.00 0.00 87 1005.9
20260904224904 82 19 1.0 2.0 0.00 0.00 0.00 87 1005.9
20260904224404 82 288 0.0 1.0 0.00 0.00 0.00 87 1005.9
20260904223403 82 269 0.0 3.0 0.00 0.00 0.00 87 1005.7
20260904222904 82 327 0.0 1.0 0.00 0.00 0.00 87 1005.6
20260904222404 82 330 0.0 1.0 0.00 0.00 0.00 87 1005.6
20260904221904 81 331 0.0 2.0 0.00 0.00 0.00 87 1005.5
20260904221404 82 339 1.0 2.0 0.00 0.00 0.00 87 1005.5
20260904220904 82 327 1.0 3.0 0.00 0.00 0.00 87 1005.4
20260904220404 82 307 0.0 2.0 0.00 0.00 0.00 87 1005.5
20260904215904 82 306 0.0 2.0 0.00 0.00 0.00 87 1005.5
20260904215404 82 17 2.0 3.0 0.00 0.00 0.00 87 1005.5
20260904213904 82 332 0.0 1.0 0.00 0.00 0.00 86 1005.6
20260904213404 82 30 0.0 2.0 0.00 0.00 0.00 86 1005.5
20260904212903 82 30 1.0 2.0 0.00 0.00 0.00 86 1005.5
20260904212403 82 14 1.0 2.0 0.00 0.00 0.00 86 1005.5
20260904211903 82 24 1.0 2.0 0.00 0.00 0.00 86 1005.5
20260904211404 82 353 1.0 3.0 0.00 0.00 0.00 86 1005.5
20260904210904 82 5 2.0 3.0 0.00 0.00 0.00 86 1005.5
20260904210404 82 353 1.0 3.0 0.00 0.00 0.00 85 1005.5
20260904205903 82 345 2.0 3.0 0.00 0.00 0.00 85 1005.5
20260904205404 82 306 1.0 2.0 0.00 0.00 0.00 85 1005.5
20260904204903 82 300 1.0 2.0 0.00 0.00 0.00 85 1005.5
20260904204404 82 279 1.0 3.0 0.00 0.00 0.00 85 1005.5
20260904202904 82 315 0.0 1.0 0.00 0.00 0.00 85 1005.5
20260904201904 82 345 1.0 3.0 0.00 0.00 0.00 84 1005.4
20260904201404 82 45 1.0 2.0 0.00 0.00 0.00 84 1005.4
20260904200904 82 352 2.0 3.0 0.00 0.00 0.00 84 1005.4
20260904195904 83 283 0.0 1.0 0.00 0.00 0.00 83 1005.3
20260904195404 83 283 0.0 1.0 0.00 0.00 0.00 83 1005.3
20260904194904 83 329 0.0 1.0 0.00 0.00 0.00 83 1005.2
20260904193904 83 264 0.0 1.0 0.00 0.00 0.00 83 1005.2
20260904193404 83 277 0.0 1.0 0.00 0.00 0.00 83 1005.1
20260904192904 83 277 0.0 1.0 0.00 0.00 0.00 83 1005.2
20260904191904 83 277 0.0 1.0 0.00 0.00 0.00 83 1005.1
20260904191404 83 272 0.0 2.0 0.00 0.00 0.00 83 1005.1
20260904190904 83 272 1.0 2.0 0.00 0.00 0.00 83 1005.0
20260904190403 83 273 0.0 1.0 0.00 0.00 0.00 83 1005.0
20260904185904 83 273 0.0 1.0 0.00 0.00 0.00 83 1005.0
20260904185404 83 273 0.0 1.0 0.00 0.00 0.00 83 1005.0
20260904184404 83 276 0.0 1.0 0.00 0.00 0.00 83 1005.0
20260904183904 83 276 0.0 2.0 0.00 0.00 0.00 83 1004.9
20260904183403 83 276 0.0 1.0 0.00 0.00 0.00 83 1005.0
20260904182904 83 276 0.0 1.0 0.00 0.00 0.00 82 1004.9
20260904182404 83 276 0.0 1.0 0.00 0.00 0.00 82 1004.9
20260904181904 83 276 0.0 2.0 0.00 0.00 0.00 82 1004.9
20260904181404 83 277 0.0 1.0 0.00 0.00 0.00 82 1005.0
20260904180403 83 278 0.0 1.0 0.00 0.00 0.00 82 1005.0
20260904175904 83 282 1.0 2.0 0.00 0.00 0.00 82 1005.0
20260904174903 83 327 0.0 1.0 0.00 0.00 0.00 82 1005.2
20260904174404 83 340 0.0 2.0 0.00 0.00 0.00 82 1005.3
20260904173904 83 327 0.0 2.0 0.00 0.00 0.00 82 1005.3
20260904173403 83 343 1.0 2.0 0.00 0.00 0.00 83 1005.3
20260904172904 82 347 1.0 2.0 0.00 0.00 0.00 83 1005.2
20260904171904 83 336 0.0 2.0 0.00 0.00 0.00 83 1005.3
20260904171404 83 336 2.0 3.0 0.00 0.00 0.00 83 1005.3
20260904170904 83 327 0.0 2.0 0.00 0.00 0.00 83 1005.5
20260904170403 83 330 0.0 2.0 0.00 0.00 0.00 83 1005.4
20260904165904 83 343 1.0 2.0 0.00 0.00 0.00 83 1005.4
20260904164904 83 331 0.0 2.0 0.00 0.00 0.00 82 1005.5
20260904164403 83 348 1.0 2.0 0.00 0.00 0.00 82 1005.5
20260904163904 83 353 1.0 2.0 0.00 0.00 0.00 82 1005.5
20260904163404 83 18 1.0 3.0 0.00 0.00 0.00 82 1005.5
20260904162903 83 301 0.0 2.0 0.00 0.00 0.00 82 1005.5
20260904161904 83 271 0.0 1.0 0.00 0.00 0.00 83 1005.5
20260904161405 83 271 1.0 1.0 0.00 0.00 0.00 83 1005.6
20260904160904 83 271 0.0 2.0 0.00 0.00 0.00 83 1005.6
20260904160403 83 275 0.0 1.0 0.00 0.00 0.00 83 1005.6
20260904155904 83 274 0.0 1.0 0.00 0.00 0.00 83 1005.6
20260904155404 83 274 0.0 0.0 0.00 0.00 0.00 83 1005.6
20260904154404 84 278 0.0 0.0 0.00 0.00 0.00 82 1005.6
20260904153904 84 278 0.0 0.0 0.00 0.00 0.00 82 1005.6
20260904153404 84 276 0.0 0.0 0.00 0.00 0.00 82 1005.6
20260904152904 84 276 0.0 0.0 0.00 0.00 0.00 82 1005.7
20260904152404 84 256 0.0 0.0 0.00 0.00 0.00 82 1005.7
20260904151904 83 255 0.0 1.0 0.00 0.00 0.00 82 1005.7
20260904151403 83 252 0.0 1.0 0.00 0.00 0.00 83 1005.7
20260904150904 83 241 1.0 2.0 0.00 0.00 0.00 82 1005.7
20260904150404 83 264 0.0 2.0 0.00 0.00 0.00 82 1005.7
20260904145905 83 262 0.0 0.0 0.00 0.00 0.00 83 1005.8
20260904144904 83 258 0.0 1.0 0.00 0.00 0.00 83 1005.9
20260904143904 83 238 1.0 2.0 0.00 0.00 0.00 83 1006.0
20260904143404 83 271 0.0 0.0 0.00 0.00 0.00 83 1005.9
20260904142403 84 272 0.0 1.0 0.00 0.00 0.00 82 1005.8
20260904141903 84 273 0.0 1.0 0.00 0.00 0.00 82 1005.8
20260904141404 84 262 0.0 1.0 0.00 0.00 0.00 82 1005.9
20260904140904 84 261 1.0 2.0 0.00 0.00 0.00 82 1005.8
20260904140404 84 289 0.0 1.0 0.00 0.00 0.00 82 1005.8
20260904135904 84 301 0.0 1.0 0.00 0.00 0.00 82 1005.8
20260904134904 84 307 0.0 2.0 0.00 0.00 0.00 82 1005.8
20260904134404 84 313 1.0 2.0 0.00 0.00 0.00 82 1005.8
20260904133903 84 322 0.0 1.0 0.00 0.00 0.00 82 1005.8
20260904133404 84 323 0.0 1.0 0.00 0.00 0.00 81 1005.7
20260904132904 84 326 0.0 1.0 0.00 0.00 0.00 81 1005.7
20260904132404 84 328 0.0 1.0 0.00 0.00 0.00 81 1005.7
20260904131904 84 339 1.0 2.0 0.00 0.00 0.00 81 1005.6
20260904130904 84 277 0.0 3.0 0.00 0.00 0.00 82 1005.4